Wind_Speed
9 7 5 4 2 0 2 3 5 6 7 8 9 10 11 11 12 12 12 12 12 11 11 10 10 10 10 10 10 10 10 10 10 10 9 9 9 9 9 9 10 11 12
10 8 7 5 4 2 2 3 4 5 6 8 9 10 10 10 11 11 11 12 12 12 11 11 11 11 11 11 11 11 12 12 11 11 11 11 11 11 11 12 12 13 14
11 10 8 7 6 4 3 3 4 5 6 7 9 10 10 10 11 11 11 11 12 12 12 12 12 12 13 13 13 13 13 13 13 13 13 13 13 13 13 14 15 16 16
12 11 10 8 7 6 5 4 4 5 6 7 8 9 10 11 11 11 12 12 13 13 13 13 13 14 14 14 14 15 15 16 16 16 16 16 16 17 17 17 17 18 19
13 12 11 10 9 7 7 6 6 6 7 8 8 9 10 11 12 12 13 13 14 14 14 15 15 16 16 16 16 17 18 18 18 18 19 19 19 19 20 20 21 22 23
14 13 12 11 10 9 8 8 8 8 8 9 9 10 11 12 13 13 14 15 15 16 16 16 17 18 18 19 19 20 20 20 21 21 22 22 22 23 23 24 25 26 26
15 14 14 13 12 11 10 10 10 10 10 10 11 11 12 13 14 15 16 17 17 18 18 18 19 20 20 21 21 22 23 23 24 24 24 24 25 26 27 28 29 30 31
17 15 15 14 14 13 12 12 12 12 12 12 13 14 14 15 16 17 18 18 19 19 20 20 21 22 23 23 24 25 26 26 27 27 28 28 29 30 30 32 33 34 34
18 17 16 15 15 14 14 13 13 14 14 15 15 16 17 17 18 18 19 20 21 22 22 23 23 24 25 26 26 27 28 29 30 30 31 32 33 33 35 36 37 38 38
18 18 17 17 16 15 15 15 15 16 16 17 17 18 19 19 20 21 21 22 23 24 24 25 26 27 28 28 29 29 30 32 33 33 34 36 36 37 38 40 40 41 41
19 19 18 17 17 17 17 17 17 18 18 19 19 20 21 22 22 23 24 25 26 26 27 28 28 29 30 31 32 33 34 35 36 37 37 38 39 40 42 43 44 45 46
20 19 19 19 19 19 19 19 19 20 20 21 22 22 23 24 25 26 26 27 28 29 29 30 31 32 33 34 35 36 37 38 39 40 41 42 43 44 45 46 47 49 49
21 21 20 20 20 20 21 21 22 22 23 23 24 24 25 26 27 28 29 30 31 32 33 33 34 35 36 37 39 40 41 42 43 44 45 46 46 47 48 49 50 51 51
23 22 22 22 22 22 23 23 24 24 25 25 26 26 27 28 29 31 32 33 34 35 36 36 38 39 40 41 42 43 44 46 47 48 48 49 49 50 50 51 51 52 53
24 24 24 24 24 24 24 25 25 26 27 28 28 29 30 31 32 33 35 36 37 38 39 40 41 42 43 44 45 46 47 48 49 50 50 51 51 52 53 54 54 55 55
26 26 26 26 26 26 26 27 27 28 29 30 31 32 33 34 35 36 38 39 40 41 42 43 44 45 45 46 47 49 50 50 51 51 52 53 53 54 55 55 56 57 56
27 27 27 27 27 28 29 29 29 30 31 32 33 34 35 37 38 40 41 42 43 44 45 46 46 47 48 49 50 51 51 52 52 53 53 54 54 55 56 56 57 58 58
28 28 29 29 29 30 30 31 31 32 33 34 35 37 38 40 41 42 43 44 45 46 47 48 48 49 50 51 51 52 52 52 53 54 55 55 56 56 57 58 59 59 59
28 29 30 30 31 31 32 33 34 34 35 37 38 39 41 42 43 44 45 46 47 48 49 49 50 51 52 52 53 53 53 53 54 55 56 57 57 58 59 60 61 61 61
30 31 31 32 33 33 34 35 36 37 38 39 40 42 44 45 45 46 47 48 49 50 50 51 52 53 53 54 54 54 55 55 56 57 58 59 59 60 61 62 63 63 63
33 33 34 35 35 36 36 37 38 40 41 42 43 45 46 46 47 48 49 50 51 51 52 53 54 54 54 54 55 56 57 57 58 59 60 61 61 62 63 64 64 63 63
35 36 36 37 38 38 39 40 41 42 44 45 46 47 48 48 49 50 51 51 52 53 53 54 54 55 55 56 57 58 58 59 60 61 62 63 63 64 63 63 62 62 60
38 38 39 39 40 41 42 43 44 45 46 47 48 49 49 50 51 51 52 52 53 53 54 55 55 56 57 58 59 59 60 61 62 63 64 64 64 63 62 61 60 59 58
41 41 41 42 43 44 44 45 46 47 48 49 50 50 51 52 52 52 53 53 54 55 55 56 57 58 59 59 60 60 61 62 63 64 64 63 62 61 60 59 59 58 56
43 43 44 44 45 46 46 47 48 49 50 50 51 51 51 52 52 53 54 54 55 56 57 58 59 60 60 60 61 61 62 63 64 63 63 62 61 60 59 58 57 55 53
44 44 45 45 46 47 48 49 49 50 50 51 51 51 52 53 54 54 55 56 57 58 59 59 60 60 60 60 61 62 63 63 63 62 62 61 61 60 58 56 55 53 52
Wind_Direction
211 210 208 210 210 215 15 11 12 16 18 20 22 22 23 24 24 24 25 23 20 18 15 13 10 6 3 359 355 352 349 345 340 335 330 325 320 310 302 296 290 285 281
214 216 218 220 227 251 307 339 353 2 7 10 12 12 12 12 14 15 16 15 13 11 8 6 2 358 354 348 344 341 338 335 331 328 323 317 313 309 304 297 292 290 288
218 220 223 227 235 250 275 303 328 343 352 358 3 4 3 2 2 3 2 2 1 360 359 357 354 351 346 341 337 334 331 328 325 322 318 313 308 306 302 298 294 292 290
220 223 227 233 240 249 262 282 304 323 335 343 349 352 353 354 352 352 350 350 349 348 347 345 343 340 339 336 333 330 327 324 320 318 315 311 305 301 299 296 295 291 289
224 227 231 237 243 249 259 271 287 304 318 326 332 338 342 344 345 343 342 341 339 338 336 335 334 332 331 329 325 323 323 320 318 315 312 310 306 302 298 295 294 293 291
229 232 236 240 245 250 259 269 280 292 303 313 319 325 329 333 336 336 334 334 333 332 330 328 328 327 326 323 320 319 318 317 314 312 310 308 306 303 299 297 295 292 290
233 236 240 243 247 252 260 269 278 287 295 302 308 313 318 322 326 328 328 329 328 327 325 324 323 322 321 320 318 317 316 314 312 311 308 306 304 302 299 298 297 294 292
236 239 244 247 251 256 261 268 276 284 291 297 301 305 309 313 316 318 321 322 322 322 321 319 318 318 317 316 315 314 314 312 311 308 306 305 304 302 300 298 297 295 294
239 242 247 250 253 257 261 268 275 282 289 293 297 300 304 307 309 312 314 316 317 318 317 316 315 314 314 313 312 312 312 312 310 308 306 305 304 302 301 299 297 295 292
241 246 249 251 254 259 264 269 275 282 287 291 295 298 301 304 306 308 310 312 313 314 313 313 312 312 312 311 310 311 311 311 309 307 305 304 303 301 300 299 297 296 293
245 248 252 254 257 261 266 272 277 282 286 290 293 296 299 302 304 306 308 310 311 311 311 311 311 311 311 310 309 309 309 309 308 306 305 303 301 300 299 298 297 296 294
246 250 253 256 260 263 268 273 278 282 286 289 293 295 297 300 302 304 306 308 309 310 310 309 309 310 310 310 309 308 308 307 307 306 305 302 301 299 298 298 297 296 294
248 251 255 259 262 266 270 274 278 282 285 289 292 294 296 298 300 302 304 305 306 307 308 308 308 308 308 308 308 307 306 306 306 305 303 302 301 300 298 298 297 295 294
250 254 257 261 265 269 272 276 279 282 285 288 290 293 295 297 298 300 302 303 304 306 306 307 307 307 307 307 307 307 306 306 306 305 303 302 301 300 299 299 298 296 295
252 256 259 263 267 270 274 277 280 283 286 288 291 293 295 296 298 300 301 303 303 304 305 305 306 306 306 306 306 306 306 305 305 305 304 303 301 301 300 299 299 299 297
255 259 262 265 268 271 274 277 280 283 286 288 291 293 295 297 298 300 301 302 303 304 305 305 305 305 305 305 305 306 305 305 305 305 304 304 303 302 302 301 301 300 299
257 261 264 267 269 272 274 277 280 283 285 288 291 293 295 297 298 300 301 303 304 304 305 305 305 305 305 305 305 306 306 305 305 305 305 305 305 304 304 303 303 301 300
260 263 266 269 271 274 276 279 281 284 286 289 291 294 295 297 298 300 301 303 304 304 304 305 305 305 305 305 306 306 306 306 306 306 306 306 305 305 305 304 303 303 301
264 266 268 271 273 275 277 279 282 285 287 289 292 294 295 297 298 300 301 302 303 304 304 304 305 305 305 305 305 305 306 306 306 306 306 306 305 305 305 305 304 303 302
265 268 270 272 274 276 279 280 283 285 287 290 291 293 295 297 298 300 301 302 302 303 303 304 305 305 305 305 305 305 305 306 306 306 307 306 306 306 306 306 305 304 302
267 269 271 274 276 278 279 281 283 285 288 290 292 294 295 296 298 299 300 301 302 303 303 304 305 305 305 305 305 305 305 306 306 307 307 307 306 306 306 306 306 305 303
268 270 272 274 276 278 280 282 284 286 289 290 292 294 295 296 298 299 300 300 301 302 303 304 304 304 305 305 305 305 305 306 306 307 307 307 307 307 307 307 306 305 304
269 271 273 275 277 279 281 283 285 287 289 291 292 294 295 296 297 298 299 300 301 302 303 304 304 304 304 304 305 305 305 306 307 307 308 308 308 308 307 307 307 306 305
270 272 274 275 278 280 282 284 286 288 289 291 292 294 295 296 297 298 299 300 301 302 303 303 304 304 304 305 305 305 306 306 307 307 308 308 308 308 308 307 307 306 304
272 273 275 277 278 280 282 284 286 288 290 291 292 294 295 296 297 298 299 300 301 302 303 303 304 304 305 305 305 306 306 306 307 307 307 308 308 308 307 307 306 305 304
273 275 276 278 280 281 283 285 286 288 290 291 292 293 294 295 297 298 299 300 301 302 303 303 304 304 305 305 305 306 306 306 306 306 306 307 307 307 307 306 306 305 303
Height
5887 5889 5890 5891 5891 5891 5891 5891 5890 5890 5889 5888 5887 5885 5884 5882 5881 5879 5878 5877 5876 5875 5874 5872 5871 5871 5870 5869 5868 5867 5865 5865 5864 5863 5861 5860 5860 5860 5860 5861 5861 5862 5862
5886 5888 5889 5890 5890 5891 5891 5891 5891 5890 5889 5888 5887 5886 5885 5883 5882 5880 5879 5878 5877 5875 5874 5873 5872 5870 5869 5868 5867 5865 5864 5863 5862 5861 5859 5858 5858 5857 5857 5858 5858 5858 5859
5885 5886 5888 5889 5889 5890 5890 5890 5890 5890 5889 5888 5887 5886 5885 5883 5882 5881 5880 5878 5877 5876 5874 5873 5871 5870 5869 5867 5865 5864 5862 5860 5859 5858 5857 5856 5855 5854 5854 5854 5854 5854 5854
5883 5884 5886 5887 5888 5889 5889 5889 5889 5889 5888 5888 5887 5886 5884 5883 5882 5880 5879 5878 5876 5875 5874 5872 5871 5869 5867 5865 5863 5861 5859 5858 5856 5855 5853 5852 5851 5850 5849 5849 5849 5849 5848
5880 5882 5884 5885 5886 5887 5887 5888 5888 5887 5887 5887 5886 5885 5884 5882 5881 5879 5878 5877 5875 5874 5872 5871 5869 5867 5865 5863 5860 5858 5856 5854 5852 5851 5849 5847 5846 5845 5844 5843 5843 5842 5842
5878 5880 5881 5883 5884 5885 5885 5885 5886 5886 5885 5885 5884 5883 5882 5881 5879 5878 5876 5875 5873 5872 5870 5868 5866 5864 5862 5859 5857 5855 5852 5850 5848 5846 5844 5842 5840 5839 5838 5836 5835 5834 5834
5875 5877 5878 5880 5881 5882 5882 5883 5883 5883 5883 5882 5882 5881 5880 5879 5877 5876 5874 5873 5871 5869 5867 5865 5863 5861 5859 5856 5853 5850 5848 5845 5843 5840 5838 5836 5834 5833 5831 5829 5827 5825 5823
5872 5874 5875 5877 5878 5879 5879 5880 5880 5880 5880 5879 5879 5878 5877 5876 5874 5873 5871 5869 5868 5866 5864 5862 5859 5857 5854 5852 5849 5846 5843 5840 5837 5834 5832 5829 5827 5824 5822 5819 5817 5814 5812
5868 5870 5872 5873 5874 5875 5876 5876 5876 5876 5876 5876 5875 5874 5873 5872 5871 5869 5868 5866 5864 5861 5859 5857 5854 5852 5849 5846 5843 5840 5837 5834 5830 5827 5824 5821 5818 5815 5812 5809 5805 5803 5801
5864 5866 5868 5869 5870 5871 5872 5872 5872 5872 5872 5871 5871 5870 5869 5868 5866 5864 5863 5861 5859 5856 5854 5851 5848 5845 5842 5839 5837 5834 5830 5827 5823 5819 5816 5812 5808 5805 5801 5797 5793 5790 5788
5860 5862 5863 5864 5866 5866 5867 5867 5867 5867 5867 5867 5866 5865 5864 5862 5861 5859 5857 5855 5852 5850 5848 5845 5842 5838 5835 5832 5829 5826 5822 5818 5814 5810 5807 5803 5798 5794 5790 5785 5781 5777 5774
5855 5857 5858 5860 5861 5861 5862 5862 5862 5862 5862 5861 5860 5859 5858 5856 5854 5852 5850 5848 5846 5843 5840 5837 5834 5831 5828 5824 5820 5817 5813 5809 5805 5800 5796 5791 5787 5782 5778 5773 5768 5763 5758
5850 5852 5853 5854 5855 5856 5856 5856 5856 5856 5855 5855 5854 5852 5851 5849 5848 5846 5843 5841 5838 5835 5832 5829 5826 5822 5819 5815 5811 5806 5802 5798 5793 5789 5784 5779 5774 5769 5764 5758 5753 5748 5743
5844 5846 5847 5848 5849 5850 5850 5850 5850 5849 5849 5848 5847 5845 5844 5842 5840 5838 5835 5833 5830 5827 5824 5820 5817 5813 5809 5804 5800 5795 5790 5785 5780 5775 5770 5765 5759 5754 5749 5743 5737 5732 5727
5838 5840 5841 5842 5843 5843 5843 5843 5843 5842 5841 5840 5839 5838 5836 5834 5832 5829 5827 5824 5821 5818 5814 5810 5806 5802 5798 5793 5788 5783 5778 5772 5767 5761 5756 5750 5745 5739 5733 5727 5720 5715 5709
5832 5833 5834 5835 5835 5836 5836 5835 5835 5834 5833 5832 5830 5829 5827 5825 5822 5820 5817 5814 5810 5807 5803 5799 5795 5790 5785 5780 5775 5770 5764 5758 5752 5746 5740 5735 5729 5723 5717 5710 5704 5697 5692
5825 5826 5827 5827 5828 5828 5828 5827 5827 5826 5825 5823 5822 5820 5817 5815 5812 5809 5806 5803 5799 5795 5791 5787 5782 5777 5772 5767 5761 5755 5750 5743 5737 5731 5725 5719 5713 5707 5700 5694 5688 5681 5675
5817 5818 5819 5819 5819 5819 5819 5818 5818 5817 5816 5814 5812 5810 5807 5805 5802 5798 5795 5791 5787 5783 5778 5773 5769 5764 5758 5753 5747 5741 5735 5729 5722 5716 5710 5703 5697 5691 5684 5677 5670 5663 5657
5809 5810 5810 5810 5810 5810 5810 5809 5808 5807 5806 5804 5802 5799 5796 5793 5790 5787 5783 5779 5774 5770 5765 5760 5755 5750 5744 5738 5732 5726 5720 5714 5707 5701 5694 5688 5681 5674 5667 5660 5653 5646 5639
5801 5801 5801 5801 5801 5801 5800 5799 5798 5797 5795 5793 5791 5788 5785 5782 5778 5774 5770 5766 5761 5756 5751 5746 5741 5735 5729 5723 5717 5711 5705 5698 5692 5685 5679 5672 5665 5657 5650 5643 5635 5628 5621
5791 5792 5792 5791 5791 5791 5790 5789 5787 5786 5784 5781 5779 5776 5773 5769 5765 5761 5757 5752 5747 5742 5737 5732 5726 5720 5714 5708 5702 5695 5689 5682 5676 5669 5662 5655 5648 5640 5633 5625 5617 5609 5602
5781 5781 5781 5781 5780 5779 5778 5777 5775 5774 5771 5769 5766 5763 5759 5756 5752 5748 5743 5738 5733 5728 5723 5717 5711 5705 5699 5692 5686 5679 5673 5666 5659 5652 5645 5638 5630 5622 5614 5607 5599 5591 5584
5771 5771 5770 5769 5769 5768 5766 5765 5763 5761 5758 5755 5752 5749 5745 5741 5737 5733 5728 5724 5719 5713 5707 5702 5696 5690 5683 5676 5669 5663 5656 5649 5642 5634 5627 5620 5612 5605 5597 5589 5582 5574 5567
5759 5758 5758 5758 5756 5755 5754 5752 5750 5747 5745 5742 5738 5735 5731 5727 5723 5718 5714 5709 5703 5698 5692 5686 5680 5674 5667 5660 5653 5646 5639 5632 5624 5617 5609 5602 5594 5587 5580 5572 5565 5558 5551
5746 5746 5745 5745 5743 5742 5740 5738 5736 5733 5730 5727 5724 5720 5716 5712 5708 5703 5698 5693 5688 5682 5676 5670 5664 5657 5650 5644 5637 5630 5622 5614 5606 5599 5591 5584 5577 5570 5563 5556 5549 5543 5536
5733 5733 5732 5731 5730 5728 5726 5724 5722 5719 5716 5712 5709 5705 5701 5697 5692 5688 5683 5677 5672 5666 5660 5654 5647 5641 5634 5627 5620 5612 5605 5597 5589 5581 5574 5567 5560 5553 5546 5540 5533 5527 5522